Temp
84 83 81 80 80 79 79 79 79 78 74 71 74 72 73 79 79 78 77 77 77 76 74 74 76 76 77 76 75 70 70 73 70 71 72 73 72 74 74 72 73 70 71
86 83 83 82 80 80 79 80 80 79 78 74 73 74 77 78 78 77 76 75 74 75 76 74 75 78 75 75 74 74 73 71 71 68 69 70 71 72 73 71 72 75 70
85 84 83 81 81 80 81 81 81 80 80 80 79 78 78 78 77 76 70 69 71 72 75 76 77 74 76 73 75 74 72 73 72 70 68 70 70 70 70 72 70 69 73
83 82 81 81 82 83 83 82 84 82 82 81 81 80 79 78 77 71 70 70 71 72 74 75 74 75 76 76 75 74 72 70 69 66 66 67 68 69 69 70 69 69 67
82 81 81 81 81 80 81 81 81 80 83 81 78 78 77 77 74 71 70 70 70 71 73 73 72 72 74 74 71 73 72 69 69 67 66 67 66 66 69 67 68 66 64
80 80 80 81 80 79 79 79 78 77 76 76 76 75 73 75 73 71 70 67 70 68 69 72 70 71 72 74 73 72 73 70 68 67 68 66 66 66 67 66 65 63 62
76 76 76 76 75 75 75 74 74 72 72 72 71 71 72 71 70 69 72 69 68 69 70 72 72 73 73 73 71 69 69 69 71 69 68 68 67 66 67 66 65 64 64
76 76 76 75 76 73 73 74 72 71 71 70 71 71 72 71 68 68 70 70 70 72 71 72 72 72 72 71 69 70 69 69 68 70 70 70 69 68 68 68 67 66 66
74 74 75 75 75 75 74 74 74 74 74 74 74 73 74 74 69 66 66 70 70 70 72 73 73 74 66 64 68 68 69 68 66 67 69 68 69 69 69 67 65 64 63
73 74 74 75 74 73 74 73 74 73 73 74 73 73 73 73 69 65 64 68 69 69 69 70 65 64 62 63 68 68 69 69 68 66 66 66 67 67 68 68 67 63 62
75 75 75 75 74 74 74 74 73 73 73 72 71 71 72 69 65 63 63 67 65 65 66 68 65 61 60 59 62 67 66 67 67 66 65 65 65 65 65 66 67 66 63
75 75 75 75 77 76 74 73 73 72 71 70 70 69 69 69 65 63 61 61 62 64 67 67 62 60 58 60 61 62 62 65 66 64 64 63 63 64 65 66 67 66 66
74 74 74 74 75 74 73 72 71 71 70 69 68 67 68 69 67 64 62 60 61 65 67 63 60 58 59 61 62 63 63 66 65 64 63 63 63 64 65 63 63 63 63
74 74 74 72 72 73 73 72 70 69 68 68 68 66 66 65 64 63 63 65 65 65 64 64 62 62 62 61 62 63 63 64 64 63 62 63 64 64 63 65 63 63 61
74 74 74 74 72 72 72 69 70 65 64 67 66 66 65 64 61 54 54 60 59 59 59 65 65 64 63 63 64 63 62 62 63 62 62 63 63 63 62 62 61 60 58
73 75 76 73 73 74 72 68 56 55 55 53 51 58 60 54 50 50 49 49 50 51 62 66 65 65 65 65 63 62 62 62 60 61 62 62 61 60 60 60 60 59 58
73 74 77 72 75 76 73 73 68 61 55 53 51 50 50 50 50 49 48 47 49 56 63 66 65 65 65 64 64 62 61 62 63 63 62 61 60 59 60 59 59 59 59
75 66 72 73 74 77 74 73 72 69 65 64 53 53 50 48 48 48 47 51 63 59 64 64 64 64 65 64 64 64 64 64 64 62 61 61 60 60 60 58 59 60 58
74 74 74 75 75 74 73 74 76 70 68 66 61 54 52 47 47 47 47 59 63 67 65 64 65 64 64 65 64 63 63 63 63 62 62 60 59 59 59 58 60 56 57
74 72 72 73 74 74 76 74 73 71 71 69 66 65 59 55 60 61 60 64 66 67 66 65 65 65 65 65 63 63 63 62 63 62 62 61 60 61 61 60 60 59 58
74 75 72 72 74 75 74 73 72 73 71 72 72 69 61 65 67 68 68 67 68 67 67 67 66 66 65 65 64 63 63 62 63 62 62 62 62 61 61 60 61 61 59
74 74 74 73 75 74 73 73 72 75 74 74 71 65 57 68 69 68 68 70 70 68 68 68 67 67 66 66 66 65 65 64 64 63 63 62 61 60 60 60 61 60 60
74 75 75 74 74 71 73 73 73 75 74 74 75 70 70 69 69 68 68 68 68 69 69 69 68 66 66 66 68 67 65 65 66 66 64 62 60 59 61 61 60 60 59
73 74 74 74 74 74 73 74 74 69 77 76 73 75 72 69 68 68 68 68 69 69 70 68 68 68 67 67 66 68 69 66 67 63 63 60 59 56 59 61 61 61 61
73 73 73 73 73 73 74 74 74 75 76 77 78 77 76 72 71 68 68 66 67 67 68 69 69 70 71 69 66 68 57 53 63 57 62 62 60 60 59 60 59 62 63
73 75 74 74 73 75 74 73 74 74 74 75 75 74 74 73 72 69 69 67 67 67 69 69 71 73 72 68 66 52 42 46 56 52 65 63 61 60 60 61 61 62 64
MSLP
1011.14 1011.50 1012.13 1012.56 1013.08 1013.63 1014.10 1014.39 1014.55 1014.87 1015.06 1015.05 1014.67 1014.68 1014.90 1015.08 1015.15 1015.50 1015.79 1016.14 1016.37 1016.34 1016.38 1016.56 1016.42 1016.42 1016.32 1016.17 1016.08 1016.16 1016.16 1016.16 1016.66 1016.26 1015.93 1015.95 1016.31 1016.34 1016.62 1017.04 1017.36 1018.03 1018.55
1010.16 1010.80 1011.42 1011.92 1012.43 1013.06 1013.50 1013.77 1014.18 1014.43 1014.95 1014.90 1014.75 1014.76 1014.81 1014.72 1014.83 1015.21 1015.59 1015.90 1016.18 1016.12 1015.95 1016.11 1016.06 1016.02 1015.92 1015.94 1015.95 1016.11 1016.03 1015.88 1016.03 1016.36 1016.36 1016.35 1016.13 1016.12 1016.14 1016.70 1017.12 1017.52 1018.02
1009.83 1010.55 1011.10 1011.65 1012.02 1012.43 1012.98 1013.35 1013.43 1013.72 1013.92 1014.05 1014.16 1014.28 1014.19 1014.21 1014.37 1014.65 1015.05 1015.13 1015.14 1015.41 1015.81 1015.74 1015.63 1015.79 1015.66 1015.41 1015.42 1015.68 1015.57 1015.58 1015.80 1015.94 1016.40 1016.41 1016.31 1016.28 1016.46 1016.90 1017.25 1017.54 1017.77
1010.11 1010.55 1011.02 1011.35 1011.62 1011.88 1012.12 1012.44 1012.69 1012.77 1012.97 1013.11 1013.17 1013.34 1013.41 1013.82 1014.23 1014.67 1014.97 1015.00 1014.81 1014.55 1014.30 1014.91 1015.01 1015.15 1014.80 1014.79 1014.88 1015.09 1015.44 1015.78 1016.10 1016.08 1016.08 1016.13 1015.98 1016.17 1016.30 1016.50 1016.97 1017.17 1017.38
1010.40 1010.71 1011.02 1011.12 1011.31 1011.68 1011.92 1012.06 1012.30 1012.42 1012.49 1012.60 1012.64 1012.86 1012.67 1013.41 1014.93 1014.47 1014.94 1015.07 1014.27 1014.19 1013.32 1013.38 1013.73 1013.86 1014.31 1014.35 1015.03 1014.93 1013.98 1015.17 1015.35 1015.04 1015.29 1015.40 1015.60 1015.84 1015.86 1015.86 1016.36 1016.91 1017.44
1010.74 1011.04 1011.13 1011.10 1011.42 1011.74 1011.98 1012.17 1012.23 1012.43 1012.55 1012.55 1012.92 1012.93 1012.33 1011.62 1012.50 1014.47 1014.84 1014.54 1013.95 1013.83 1013.60 1013.40 1013.22 1013.40 1013.54 1013.86 1013.66 1013.65 1013.64 1014.32 1014.70 1015.07 1015.14 1014.60 1015.14 1016.27 1015.54 1015.70 1016.27 1017.16 1017.66
1011.40 1011.54 1011.65 1011.83 1011.95 1012.14 1012.42 1012.71 1012.85 1013.12 1013.08 1013.05 1013.31 1013.29 1013.58 1013.68 1013.74 1013.96 1014.02 1014.10 1014.10 1014.06 1013.94 1013.83 1013.73 1013.61 1013.63 1013.43 1013.13 1013.09 1012.81 1013.08 1013.17 1013.43 1013.78 1013.96 1014.53 1014.36 1015.37 1015.16 1015.60 1016.23 1016.61
1011.96 1012.08 1012.26 1012.46 1012.51 1012.75 1013.01 1013.06 1013.13 1013.38 1013.28 1013.34 1013.39 1013.27 1013.29 1013.34 1013.35 1013.59 1013.77 1013.93 1014.03 1013.93 1013.68 1013.32 1013.22 1012.91 1012.52 1012.67 1012.85 1012.84 1012.46 1012.43 1012.58 1012.61 1012.51 1012.82 1013.12 1012.91 1014.13 1014.45 1014.93 1015.66 1016.28
1012.46 1012.50 1012.61 1012.73 1012.82 1012.96 1013.14 1013.16 1013.18 1013.21 1013.25 1013.16 1013.02 1013.07 1013.08 1012.97 1012.97 1013.14 1013.48 1013.79 1013.82 1013.66 1013.31 1012.90 1012.48 1012.13 1012.66 1012.97 1012.75 1012.77 1012.49 1012.41 1012.10 1012.11 1012.42 1012.58 1012.79 1013.10 1013.30 1014.00 1014.64 1015.34 1016.11
1012.85 1012.89 1012.83 1012.94 1013.15 1013.20 1013.28 1013.34 1013.26 1013.28 1013.38 1013.25 1013.16 1013.06 1013.03 1013.06 1013.06 1013.39 1013.69 1013.62 1013.50 1013.25 1012.88 1012.89 1012.73 1012.64 1012.42 1012.59 1012.77 1012.69 1012.50 1012.33 1012.49 1012.62 1012.64 1012.65 1012.66 1012.76 1012.95 1013.30 1013.86 1014.82 1015.49
1012.93 1012.98 1013.09 1013.18 1013.29 1013.30 1013.37 1013.38 1013.39 1013.46 1013.48 1013.38 1013.31 1013.33 1013.29 1013.35 1013.78 1013.78 1013.74 1013.70 1013.86 1013.67 1013.46 1013.21 1013.26 1013.17 1012.85 1012.91 1012.50 1012.58 1012.78 1012.76 1012.63 1012.75 1012.90 1013.00 1013.11 1013.24 1013.51 1013.69 1013.71 1014.22 1015.00
1013.09 1013.26 1013.26 1013.23 1013.24 1013.39 1013.44 1013.42 1013.34 1013.48 1013.62 1013.65 1013.54 1013.75 1013.64 1013.74 1013.85 1014.02 1014.11 1014.11 1014.14 1014.10 1013.76 1013.58 1013.59 1013.33 1013.38 1013.18 1012.99 1012.95 1012.84 1012.66 1012.68 1012.95 1013.00 1013.29 1013.58 1013.79 1013.94 1013.69 1013.86 1014.17 1014.63
1013.26 1013.40 1013.45 1013.38 1013.33 1013.34 1013.50 1013.51 1013.66 1013.59 1013.97 1014.21 1014.14 1014.25 1014.39 1014.36 1014.34 1014.37 1014.37 1014.24 1014.17 1014.17 1013.99 1013.84 1013.63 1013.56 1013.40 1013.37 1013.13 1012.83 1012.64 1012.65 1012.75 1013.05 1013.28 1013.46 1013.80 1014.08 1014.17 1014.08 1014.62 1014.88 1015.30
1013.23 1013.35 1013.44 1013.45 1013.40 1013.23 1013.27 1013.40 1013.60 1013.71 1013.96 1014.20 1014.30 1014.57 1014.73 1014.61 1014.79 1014.88 1014.88 1014.67 1014.49 1014.24 1014.12 1013.95 1013.79 1013.55 1013.46 1013.42 1013.11 1013.03 1012.91 1012.98 1013.13 1013.38 1013.69 1014.00 1014.22 1014.52 1014.79 1014.99 1015.43 1015.81 1016.34
1013.16 1013.31 1013.41 1013.39 1013.36 1013.41 1013.33 1013.56 1013.69 1014.00 1014.13 1014.32 1014.66 1014.79 1014.97 1015.10 1015.35 1015.46 1015.53 1015.34 1015.18 1014.89 1014.48 1013.97 1013.91 1013.90 1013.73 1013.77 1013.78 1013.63 1013.51 1013.40 1013.63 1013.75 1014.11 1014.40 1014.63 1014.84 1015.30 1015.54 1015.80 1016.13 1016.75
1013.06 1013.09 1013.03 1013.09 1013.06 1013.29 1013.39 1013.71 1014.05 1014.00 1014.16 1014.45 1014.76 1014.83 1015.14 1015.26 1015.14 1015.12 1015.15 1015.03 1015.01 1014.73 1014.38 1014.12 1013.88 1013.83 1013.80 1013.91 1013.95 1013.97 1013.95 1014.01 1014.21 1014.29 1014.54 1014.80 1015.11 1015.40 1015.69 1016.12 1016.27 1016.64 1017.21
1012.86 1012.91 1012.83 1012.81 1012.89 1013.00 1012.99 1013.29 1013.93 1014.32 1014.52 1014.68 1014.87 1015.00 1015.04 1015.05 1015.03 1014.98 1015.08 1014.78 1014.54 1014.49 1014.45 1014.05 1014.02 1013.90 1013.93 1013.94 1013.99 1014.09 1014.20 1014.26 1014.38 1014.58 1014.81 1015.16 1015.60 1015.90 1016.22 1016.48 1016.71 1017.03 1017.46
1012.64 1012.77 1012.79 1012.71 1012.68 1012.68 1012.61 1012.76 1013.13 1013.78 1014.25 1014.63 1014.74 1014.79 1014.97 1015.05 1015.08 1015.19 1014.99 1014.57 1014.25 1014.32 1014.07 1013.90 1013.93 1013.90 1013.94 1014.01 1014.10 1014.13 1014.21 1014.24 1014.35 1014.73 1015.07 1015.47 1015.83 1016.07 1016.37 1016.71 1016.97 1017.14 1017.63
1012.51 1012.63 1012.65 1012.59 1012.62 1012.44 1012.37 1012.44 1012.81 1013.27 1013.54 1013.99 1014.57 1014.85 1014.72 1014.82 1014.98 1014.96 1014.88 1014.72 1014.33 1014.04 1013.93 1013.93 1013.84 1013.82 1013.81 1013.89 1014.13 1014.32 1014.38 1014.46 1014.54 1014.80 1015.13 1015.53 1015.81 1016.15 1016.47 1016.85 1017.12 1017.38 1017.61
1012.45 1012.43 1012.42 1012.51 1012.38 1012.35 1012.20 1012.20 1012.62 1012.63 1012.82 1013.37 1013.73 1013.87 1014.27 1014.74 1014.63 1014.43 1014.40 1014.10 1014.08 1013.85 1013.71 1013.87 1013.80 1013.68 1013.68 1013.82 1014.11 1014.33 1014.58 1014.73 1014.81 1014.93 1015.17 1015.45 1015.73 1015.98 1016.44 1016.71 1017.03 1017.45 1017.63
1012.37 1012.15 1012.22 1012.35 1012.20 1012.13 1012.20 1012.19 1012.17 1012.16 1012.42 1012.60 1012.67 1012.57 1012.94 1013.34 1013.71 1013.67 1013.46 1013.18 1013.21 1013.07 1013.07 1013.27 1013.32 1013.31 1013.38 1013.63 1013.93 1014.19 1014.36 1014.64 1014.82 1014.99 1015.15 1015.37 1015.59 1015.97 1016.26 1016.62 1016.89 1017.05 1017.45
1012.04 1012.14 1012.05 1011.99 1011.91 1011.90 1011.84 1011.79 1011.89 1012.02 1011.97 1012.10 1012.24 1012.42 1012.78 1013.02 1012.95 1013.28 1012.94 1012.47 1012.90 1013.37 1012.73 1012.89 1013.23 1013.11 1013.08 1013.15 1013.37 1013.81 1014.15 1014.39 1014.60 1014.84 1015.11 1015.35 1015.64 1015.97 1016.29 1016.48 1016.81 1017.05 1017.32
1011.77 1011.78 1011.83 1011.53 1011.72 1011.70 1011.63 1011.67 1011.71 1011.76 1011.74 1011.64 1011.77 1012.20 1012.52 1012.69 1012.62 1012.54 1012.89 1012.41 1012.38 1012.50 1012.91 1012.67 1012.94 1013.11 1012.80 1012.78 1012.87 1013.17 1013.57 1013.89 1014.08 1014.45 1014.91 1015.28 1015.64 1015.94 1016.15 1016.45 1016.69 1016.91 1017.18
1011.63 1011.63 1011.64 1011.56 1011.37 1011.51 1011.59 1011.55 1011.60 1011.49 1011.38 1011.25 1011.42 1011.54 1012.07 1012.37 1012.49 1012.64 1012.56 1012.35 1012.12 1012.36 1012.31 1012.56 1012.54 1012.72 1012.74 1012.65 1012.83 1012.92 1012.96 1013.25 1013.62 1014.13 1014.50 1015.07 1015.50 1015.87 1016.13 1016.36 1016.47 1016.70 1016.92
1011.34 1011.41 1011.24 1011.26 1011.23 1011.30 1011.41 1011.48 1011.47 1011.35 1011.13 1011.28 1011.33 1011.37 1011.38 1011.74 1011.79 1012.17 1012.17 1012.43 1012.58 1012.52 1012.32 1011.99 1012.25 1012.28 1012.39 1012.58 1012.87 1012.81 1012.99 1013.14 1013.52 1013.97 1014.43 1014.82 1015.30 1015.64 1015.97 1016.23 1016.45 1016.55 1016.63
1010.91 1011.01 1010.86 1010.74 1010.84 1010.95 1011.11 1011.32 1011.33 1011.25 1011.12 1011.04 1010.94 1011.04 1011.00 1011.06 1011.29 1011.61 1011.77 1012.04 1012.05 1012.09 1012.02 1011.77 1011.92 1012.05 1012.31 1012.65 1012.77 1013.01 1013.35 1013.55 1013.63 1013.81 1014.10 1014.56 1015.06 1015.48 1015.83 1015.99 1016.14 1016.25 1016.28
Wind_Speed
13 11 8 7 7 6 5 5 6 8 8 7 5 4 6 8 7 6 6 6 6 6 5 6 6 6 6 4 3 3 3 4 4 3 1 5 5 9 8 6 8 7 7
12 12 12 10 7 7 6 6 5 6 10 9 7 9 11 8 7 7 6 4 5 6 7 7 8 5 7 6 4 6 4 4 4 5 1 2 3 7 11 11 8 8 8
10 11 10 8 9 7 7 7 7 8 8 8 9 10 7 7 7 5 8 6 3 1 7 8 10 7 8 5 7 7 4 3 3 3 4 3 2 3 5 6 8 6 8
5 7 8 8 8 7 8 8 11 10 10 10 9 8 9 7 5 6 4 4 6 4 3 4 6 10 11 9 9 8 4 3 3 3 3 3 2 3 3 7 7 4 6
6 6 3 2 3 4 2 2 1 6 9 9 7 7 7 2 8 3 4 6 5 6 5 3 5 11 24 18 4 12 14 2 6 7 5 2 1 3 8 3 3 3 1
6 6 4 5 5 4 4 5 6 6 5 1 4 5 4 6 19 10 9 7 6 5 4 5 2 17 21 23 19 22 13 9 11 13 6 6 4 5 2 3 4 3 2
7 7 7 7 7 7 7 5 6 6 6 6 6 4 3 2 12 14 14 5 3 5 9 10 11 13 20 10 6 11 11 14 15 11 10 8 6 6 6 3 4 4 3
6 6 6 6 5 5 5 4 4 1 0 2 3 4 4 5 9 9 6 5 6 8 8 7 7 8 6 3 4 5 7 6 9 11 9 6 10 12 9 6 6 5 4
6 6 5 4 3 2 3 4 3 3 3 3 4 4 3 4 5 6 5 4 4 6 6 6 8 9 3 6 4 6 5 4 5 7 2 7 13 12 9 6 6 6 2
6 5 5 5 6 6 5 4 2 2 3 3 5 4 6 5 3 4 3 3 4 5 6 5 12 6 7 6 4 4 6 2 4 2 2 3 3 5 10 5 7 7 4
4 3 2 2 3 2 1 1 2 3 4 5 5 5 6 6 5 5 6 4 3 4 4 4 4 9 8 6 6 5 2 4 2 4 3 3 3 2 2 1 4 5 4
5 4 2 1 3 2 2 3 2 3 4 6 5 4 4 6 8 6 5 2 2 2 4 3 2 5 5 6 5 4 6 2 3 3 4 3 3 2 2 3 4 4 3
4 3 2 3 1 1 2 4 3 2 2 2 4 3 3 3 3 5 5 7 6 2 2 1 4 5 3 4 4 7 7 2 3 3 4 3 3 4 3 6 8 11 10
4 3 2 3 3 2 1 2 2 2 3 3 3 4 2 1 4 5 5 5 7 4 3 2 2 3 4 1 2 4 4 3 3 3 3 3 3 3 4 6 7 7 6
4 4 5 4 5 5 2 0 1 4 2 2 2 3 3 3 2 2 2 4 4 4 7 1 0 1 2 2 3 3 3 4 3 3 3 3 3 4 3 4 4 3 5
2 4 4 4 5 4 4 3 10 6 6 9 6 4 1 5 0 3 5 6 6 7 3 2 1 2 1 2 2 2 2 4 3 3 3 3 4 3 4 3 4 6 6
3 4 3 2 1 2 2 2 3 1 3 5 4 1 1 2 3 4 4 9 5 3 0 3 3 3 2 3 3 3 3 3 4 3 4 4 4 4 5 3 3 3 2
1 3 3 3 3 2 2 2 1 4 3 2 4 5 4 7 7 7 5 5 3 2 2 2 2 3 3 2 3 1 2 1 3 3 4 4 4 4 4 3 2 3 3
1 3 3 3 4 4 2 2 2 3 4 4 2 1 6 7 7 6 3 2 3 1 2 2 1 1 2 3 4 4 3 2 3 4 4 4 4 4 4 3 3 4 4
3 9 6 3 3 3 4 2 2 1 2 4 4 4 4 3 2 3 4 4 3 2 3 4 3 2 2 4 4 3 3 2 2 2 3 4 4 4 4 5 4 3 3
4 6 7 4 3 3 2 2 2 2 1 2 2 6 12 5 4 4 3 5 4 5 5 5 4 3 4 4 3 3 4 3 3 3 3 3 4 4 4 4 4 4 3
2 4 4 5 4 3 1 1 1 3 3 2 4 2 5 3 2 3 4 2 4 5 3 3 3 4 4 4 5 5 4 4 3 4 4 4 4 4 4 4 4 3 3
4 5 3 5 4 3 1 2 3 2 4 3 4 4 4 2 3 5 0 2 4 3 4 3 4 3 3 3 2 4 5 5 5 5 4 4 4 4 5 4 3 2 3
4 5 4 2 4 2 1 2 4 3 4 4 1 4 4 4 4 2 2 4 4 2 2 3 4 6 5 3 0 1 4 4 5 5 7 5 5 5 4 2 3 4 3
5 5 6 4 5 3 1 4 4 5 3 1 2 4 5 6 4 5 5 4 2 2 2 2 4 7 6 6 4 3 3 11 8 8 5 6 7 7 5 3 3 3 3
5 5 4 2 3 4 3 2 2 3 2 1 3 1 3 4 5 5 4 3 4 5 3 4 6 7 7 6 7 8 6 5 9 10 6 5 5 5 4 4 7 4 4
Wind_Direction
187 185 176 185 184 188 198 216 207 149 187 220 228 201 228 221 201 203 223 247 260 263 257 254 261 247 248 261 281 282 249 167 192 297 169 174 157 166 173 168 164 160 175
183 177 185 184 175 181 198 206 204 198 180 203 217 216 223 214 205 204 226 287 309 285 265 274 271 270 260 260 255 257 246 246 166 190 190 182 170 182 179 167 169 176 170
170 175 183 181 184 183 185 203 208 198 208 208 200 214 216 215 208 191 130 156 149 358 321 292 283 280 272 258 253 257 247 244 248 153 185 189 199 169 179 167 170 168 184
143 151 170 180 183 191 200 200 208 209 208 208 213 213 216 212 203 167 116 175 203 198 175 340 338 304 279 270 265 279 276 338 277 250 229 221 169 208 157 171 187 168 188
123 106 108 148 133 81 56 207 182 207 215 216 215 238 231 112 49 352 242 254 221 188 125 150 252 284 289 283 287 268 251 242 347 341 295 304 205 182 196 197 159 137 164
62 48 72 84 79 62 34 29 18 27 22 52 320 327 52 140 200 209 237 259 296 318 296 272 217 267 279 276 276 258 227 193 198 228 209 203 202 301 289 197 133 125 174
60 48 49 53 57 59 56 48 61 41 16 28 25 10 60 319 204 218 212 236 246 271 272 257 231 237 257 254 261 259 242 225 207 209 193 189 205 158 222 185 162 159 154
86 81 77 71 63 43 40 60 57 69 63 285 239 272 257 245 234 243 205 223 251 251 249 263 251 252 261 252 274 255 252 239 228 211 206 203 210 175 196 203 172 121 89
61 57 56 47 35 27 29 25 25 18 3 342 333 316 301 315 168 193 181 225 260 280 285 291 272 255 44 322 346 319 287 274 45 43 115 155 160 166 174 143 148 139 128
78 74 58 45 56 55 54 46 9 10 357 355 330 321 305 302 258 194 261 325 341 349 346 12 42 75 80 35 37 350 337 300 163 141 119 96 134 166 158 162 152 155 130
137 128 121 124 105 105 39 331 334 343 349 322 310 348 9 31 55 62 36 7 17 338 327 350 41 26 24 17 58 61 29 328 108 127 108 99 91 83 39 351 160 145 142
115 109 116 9 99 89 17 327 328 336 330 333 340 48 34 46 48 65 71 86 1 327 326 36 67 49 32 38 51 36 13 67 113 109 120 113 105 108 130 243 87 86 94
127 148 135 84 17 276 285 299 344 320 316 347 71 92 60 43 49 31 353 316 291 285 341 35 115 123 96 66 49 59 39 63 104 117 112 96 98 112 85 82 81 70 62
152 171 212 184 254 242 338 136 110 52 58 65 58 68 96 57 34 15 2 1 4 29 16 355 353 78 70 70 5 48 59 60 85 84 86 102 117 102 116 128 111 106 98
190 223 234 214 215 250 221 111 202 62 92 104 49 71 66 21 14 12 352 346 350 327 319 276 270 322 39 11 13 55 58 60 69 90 104 97 96 105 86 96 106 71 95
246 266 245 249 216 216 218 224 60 93 109 90 88 77 104 90 303 0 353 333 335 336 338 317 348 335 288 173 121 56 21 82 89 96 99 98 98 94 104 79 83 104 112
234 292 323 295 294 197 234 204 226 338 61 83 92 48 292 217 272 295 355 328 300 27 273 36 38 25 18 55 153 168 177 168 163 135 113 111 113 114 132 133 128 122 101
303 262 285 280 291 224 202 281 49 156 199 198 220 225 254 286 292 316 336 316 313 104 247 87 51 31 29 29 27 29 116 121 137 125 124 127 132 138 129 125 113 109 121
270 296 303 281 308 254 252 291 13 155 198 153 146 270 237 255 282 288 318 253 291 177 165 100 88 74 91 90 76 55 51 117 141 139 132 137 140 144 132 133 139 144 139
282 261 252 269 299 330 294 262 135 84 54 176 191 203 159 133 242 229 213 242 252 157 119 152 188 200 127 129 122 114 94 73 121 151 157 154 156 162 149 156 161 165 180
273 221 222 253 249 264 313 122 168 123 270 276 225 179 190 176 231 254 214 216 210 160 146 162 172 158 147 152 155 138 148 164 181 169 151 154 156 149 149 159 169 160 160
274 246 235 227 245 159 185 309 329 232 243 228 205 190 163 213 238 18 343 67 85 325 155 153 168 175 163 160 164 169 168 178 179 174 169 162 144 140 145 156 177 165 162
306 306 288 250 150 176 332 326 312 262 250 251 166 206 172 174 191 150 180 121 139 156 273 141 159 154 126 127 158 156 164 177 182 164 158 142 144 152 164 167 164 147 153
275 291 301 211 139 153 286 295 307 245 255 282 173 188 154 176 252 353 125 145 123 142 200 198 153 157 159 137 148 160 187 157 147 157 145 149 161 165 153 157 176 177 163
249 271 283 212 182 195 258 280 287 307 292 22 109 175 164 193 173 180 144 144 140 212 255 188 160 149 153 135 123 122 143 149 148 155 163 160 163 169 167 183 163 177 170
246 276 236 193 176 188 218 229 299 339 21 91 48 46 185 163 173 183 184 195 179 204 182 147 145 149 155 156 143 125 139 152 161 169 160 149 150 160 174 190 191 195 206